When you browse on this site, cookies collect data to enhance your experience and personalize the content and advertising you see.
Visit our Privacy Policy to learn more. By continuing to use the site, you agree to this use of cookies and data.
  • In United Kingdom
  • List of Countries
  • For 7 days
  • Water Temperature
  • Satellite Maps
  • Weather Map
  • Weather Widgets
  • user-avatar
    Login

    Hourly Weather Tinchlik

    Today, 19 June, Wednesday

    Time Temperature Precipitation Wind Pressure Humidity
    00:00 +29°C° 0 mm 6 mps 724 mmHg 18%
    01:00 +28°C° 0 mm 5 mps 723 mmHg 18%
    02:00 +28°C° 0 mm 5 mps 723 mmHg 17%
    03:00 +27°C° 0 mm 5 mps 723 mmHg 17%
    04:00 +27°C° 0 mm 4 mps 723 mmHg 17%
    05:00 +28°C° 0 mm 5 mps 723 mmHg 16%
    06:00 +30°C° 0 mm 6 mps 724 mmHg 15%
    07:00 +32°C° 0 mm 6 mps 724 mmHg 14%
    08:00 +33°C° 0 mm 7 mps 724 mmHg 14%
    09:00 +34°C° 0 mm 7 mps 724 mmHg 15%
    10:00 +35°C° 0 mm 8 mps 724 mmHg 17%
    11:00 +35°C° 0 mm 7 mps 724 mmHg 17%
    12:00 +35°C° 0 mm 7 mps 724 mmHg 17%
    13:00 +35°C° 0 mm 6 mps 724 mmHg 17%
    14:00 +35°C° 0 mm 6 mps 723 mmHg 17%
    15:00 +35°C° 0 mm 6 mps 723 mmHg 17%
    16:00 +36°C° 0 mm 5 mps 723 mmHg 16%
    17:00 +34°C° 0 mm 4 mps 723 mmHg 16%
    18:00 +33°C° 0 mm 4 mps 723 mmHg 17%
    19:00 +31°C° 0 mm 3 mps 723 mmHg 18%
    20:00 +30°C° 0 mm 3 mps 723 mmHg 19%
    21:00 +29°C° 0 mm 3 mps 723 mmHg 20%
    22:00 +28°C° 0 mm 3 mps 723 mmHg 21%
    23:00 +27°C° 0 mm 3 mps 723 mmHg 21%

    Tomorrow, 20 June, Thursday

    Time Temperature Precipitation Wind Pressure Humidity
    00:00 +26°C° 0 mm 2 mps 723 mmHg 21%
    01:00 +25°C° 0 mm 2 mps 722 mmHg 21%
    02:00 +25°C° 0 mm 2 mps 722 mmHg 20%
    03:00 +25°C° 0 mm 2 mps 722 mmHg 20%
    04:00 +24°C° 0 mm 2 mps 722 mmHg 19%
    05:00 +27°C° 0 mm 3 mps 723 mmHg 16%
    06:00 +30°C° 0 mm 3 mps 723 mmHg 13%
    07:00 +33°C° 0 mm 3 mps 724 mmHg 11%
    08:00 +35°C° 0 mm 5 mps 724 mmHg 11%
    09:00 +36°C° 0 mm 6 mps 724 mmHg 10%
    10:00 +38°C° 0 mm 7 mps 724 mmHg 10%
    11:00 +39°C° 0 mm 7 mps 723 mmHg 9%
    12:00 +39°C° 0 mm 6 mps 723 mmHg 9%
    13:00 +40°C° 0 mm 6 mps 723 mmHg 8%
    14:00 +40°C° 0 mm 6 mps 723 mmHg 8%
    15:00 +40°C° 0 mm 6 mps 722 mmHg 8%
    16:00 +40°C° 0 mm 6 mps 722 mmHg 8%
    17:00 +38°C° 0 mm 6 mps 722 mmHg 9%
    18:00 +36°C° 0 mm 6 mps 722 mmHg 10%
    19:00 +34°C° 0 mm 5 mps 722 mmHg 11%
    20:00 +33°C° 0 mm 5 mps 722 mmHg 11%
    21:00 +32°C° 0 mm 5 mps 723 mmHg 12%
    22:00 +30°C° 0 mm 6 mps 723 mmHg 12%
    23:00 +29°C° 0 mm 5 mps 723 mmHg 12%

    Day after tomorrow, 21 June, Friday

    Time Temperature Precipitation Wind Pressure Humidity
    00:00 +28°C° 0 mm 4 mps 723 mmHg 13%
    01:00 +27°C° 0 mm 4 mps 722 mmHg 13%
    02:00 +27°C° 0 mm 3 mps 722 mmHg 14%
    03:00 +26°C° 0 mm 3 mps 722 mmHg 15%
    04:00 +25°C° 0 mm 3 mps 722 mmHg 16%
    05:00 +28°C° 0 mm 3 mps 723 mmHg 14%
    06:00 +30°C° 0 mm 4 mps 723 mmHg 13%
    07:00 +34°C° 0 mm 5 mps 723 mmHg 11%
    08:00 +35°C° 0 mm 5 mps 723 mmHg 10%
    09:00 +38°C° 0 mm 6 mps 723 mmHg 9%
    10:00 +39°C° 0 mm 7 mps 723 mmHg 9%
    11:00 +40°C° 0 mm 7 mps 723 mmHg 8%
    12:00 +40°C° 0 mm 7 mps 723 mmHg 8%
    13:00 +41°C° 0 mm 7 mps 723 mmHg 8%
    14:00 +41°C° 0 mm 8 mps 723 mmHg 8%
    15:00 +40°C° 0 mm 8 mps 722 mmHg 8%
    16:00 +40°C° 0 mm 9 mps 722 mmHg 8%
    17:00 +39°C° 0 mm 9 mps 722 mmHg 9%
    18:00 +37°C° 0 mm 8 mps 723 mmHg 10%
    19:00 +35°C° 0 mm 8 mps 723 mmHg 11%
    20:00 +34°C° 0 mm 8 mps 723 mmHg 12%
    21:00 +33°C° 0 mm 8 mps 723 mmHg 13%
    22:00 +32°C° 0 mm 8 mps 723 mmHg 14%
    23:00 +31°C° 0 mm 8 mps 723 mmHg 16%

    22 June, Saturday

    Time Temperature Precipitation Wind Pressure Humidity
    00:00 +31°C° 0 mm 8 mps 723 mmHg 18%
    01:00 +29°C° 0 mm 8 mps 723 mmHg 20%
    02:00 +29°C° 0 mm 8 mps 723 mmHg 21%
    03:00 +28°C° 0 mm 8 mps 723 mmHg 22%
    04:00 +27°C° 0 mm 7 mps 723 mmHg 23%
    05:00 +29°C° 0 mm 8 mps 724 mmHg 21%
    06:00 +32°C° 0 mm 9 mps 724 mmHg 19%
    07:00 +33°C° 0 mm 10 mps 725 mmHg 17%
    08:00 +36°C° 0 mm 10 mps 725 mmHg 15%
    09:00 +37°C° 0 mm 9 mps 725 mmHg 14%
    10:00 +38°C° 0 mm 9 mps 725 mmHg 12%
    11:00 +39°C° 0 mm 9 mps 725 mmHg 11%
    12:00 +40°C° 0 mm 10 mps 725 mmHg 11%
    13:00 +40°C° 0 mm 10 mps 725 mmHg 10%
    14:00 +40°C° 0 mm 10 mps 725 mmHg 10%
    15:00 +39°C° 0 mm 10 mps 725 mmHg 10%
    16:00 +39°C° 0 mm 10 mps 725 mmHg 11%
    17:00 +37°C° 0 mm 9 mps 725 mmHg 12%
    18:00 +35°C° 0 mm 8 mps 725 mmHg 13%
    19:00 +33°C° 0 mm 6 mps 725 mmHg 14%
    20:00 +32°C° 0 mm 6 mps 725 mmHg 15%
    21:00 +30°C° 0 mm 7 mps 725 mmHg 15%
    22:00 +30°C° 0 mm 7 mps 725 mmHg 15%
    23:00 +29°C° 0 mm 7 mps 725 mmHg 16%

    23 June, Sunday

    Time Temperature Precipitation Wind Pressure Humidity
    00:00 +29°C° 0 mm 7 mps 725 mmHg 16%
    01:00 +29°C° 0 mm 8 mps 725 mmHg 17%
    02:00 +28°C° 0 mm 7 mps 725 mmHg 18%
    03:00 +27°C° 0 mm 6 mps 725 mmHg 20%
    04:00 +26°C° 0 mm 5 mps 724 mmHg 21%
    05:00 +28°C° 0 mm 6 mps 725 mmHg 19%
    06:00 +31°C° 0 mm 8 mps 725 mmHg 17%
    07:00 +33°C° 0 mm 9 mps 726 mmHg 15%
    08:00 +34°C° 0 mm 9 mps 726 mmHg 15%
    09:00 +35°C° 0 mm 9 mps 726 mmHg 14%
    10:00 +37°C° 0 mm 10 mps 726 mmHg 14%
    11:00 +38°C° 0 mm 10 mps 725 mmHg 14%
    12:00 +38°C° 0 mm 10 mps 725 mmHg 13%
    13:00 +39°C° 0 mm 10 mps 725 mmHg 13%
    14:00 +39°C° 0 mm 10 mps 725 mmHg 13%
    15:00 +39°C° 0 mm 10 mps 725 mmHg 12%
    16:00 +39°C° 0 mm 10 mps 725 mmHg 12%
    17:00 +37°C° 0 mm 9 mps 725 mmHg 13%
    18:00 +35°C° 0 mm 8 mps 725 mmHg 14%
    19:00 +33°C° 0 mm 7 mps 725 mmHg 15%
    20:00 +32°C° 0 mm 7 mps 725 mmHg 14%
    21:00 +31°C° 0 mm 8 mps 725 mmHg 14%
    22:00 +29°C° 0 mm 8 mps 725 mmHg 14%
    23:00 +29°C° 0 mm 7 mps 725 mmHg 15%

    24 June, Monday

    Time Temperature Precipitation Wind Pressure Humidity
    00:00 +28°C° 0 mm 6 mps 725 mmHg 16%
    01:00 +27°C° 0 mm 6 mps 725 mmHg 18%
    02:00 +27°C° 0 mm 6 mps 725 mmHg 20%
    03:00 +27°C° 0 mm 6 mps 725 mmHg 22%
    04:00 +26°C° 0 mm 6 mps 724 mmHg 24%
    05:00 +28°C° 0 mm 7 mps 725 mmHg 22%
    06:00 +30°C° 0 mm 7 mps 725 mmHg 21%
    07:00 +33°C° 0 mm 8 mps 725 mmHg 20%
    08:00 +34°C° 0 mm 8 mps 725 mmHg 17%
    09:00 +37°C° 0 mm 8 mps 725 mmHg 14%
    10:00 +38°C° 0 mm 8 mps 725 mmHg 11%
    11:00 +39°C° 0 mm 7 mps 725 mmHg 10%
    12:00 +40°C° 0 mm 7 mps 724 mmHg 9%
    13:00 +41°C° 0 mm 7 mps 724 mmHg 8%
    14:00 +41°C° 0 mm 8 mps 724 mmHg 8%
    15:00 +40°C° 0 mm 8 mps 724 mmHg 8%
    16:00 +40°C° 0 mm 9 mps 724 mmHg 7%
    17:00 +38°C° 0 mm 8 mps 724 mmHg 10%
    18:00 +36°C° 0 mm 7 mps 724 mmHg 13%
    19:00 +34°C° 0 mm 6 mps 724 mmHg 15%
    20:00 +33°C° 0 mm 6 mps 724 mmHg 16%
    21:00 +32°C° 0 mm 6 mps 724 mmHg 16%
    22:00 +30°C° 0 mm 6 mps 724 mmHg 16%
    23:00 +30°C° 0 mm 6 mps 724 mmHg 17%
    Show more